Location: Narvik
(68.4360°N, 17.4370°E)
Time: 22:09:23
(UTC+02:00)

AO-73 - Visible Passes

Search period start: 20 October 2020 00:00
Search period end: 29 October 2020 23:00
Orbit: 582 x 662 km, 97.6° (Epoch: 20 October)

Date Brightness Start Highest point End Pass type
(mag) Time Alt. Az. Time Alt. Az. Time Alt. Az.
20 Oct ? 05:22:38 10° NNE 05:26:11 22° E 05:29:39 10° SE visible
20 Oct ? 06:58:38 10° NNE 07:03:09 72° ESE 07:07:31 10° SSW visible
20 Oct ? 18:07:49 10° SSW 18:11:57 33° W 18:16:04 10° NNW visible
20 Oct ? 19:48:29 10° W 19:49:33 11° WNW 19:50:37 10° NW visible
21 Oct ? 05:40:33 10° NNE 05:44:24 27° E 05:48:10 10° SSE visible
21 Oct ? 07:16:40 10° NNE 07:21:11 89° ESE 07:25:34 10° SSW visible
21 Oct ? 18:26:17 10° SW 18:30:08 26° W 18:33:59 10° NNW visible
22 Oct ? 04:23:48 10° NE 04:25:00 11° ENE 04:26:11 10° E visible
22 Oct ? 05:58:30 10° NNE 06:02:36 34° E 06:06:33 10° SSE visible
22 Oct ? 18:44:51 10° SW 18:48:22 21° W 18:51:52 10° NNW visible
23 Oct ? 04:41:05 10° NE 04:43:20 14° ENE 04:45:34 10° ESE visible
23 Oct ? 06:16:28 10° NNE 06:20:44 42° E 06:24:52 10° S visible
23 Oct ? 19:03:34 10° WSW 19:06:38 17° W 19:09:40 10° NW visible
24 Oct ? 04:58:44 10° NE 05:01:38 17° E 05:04:28 10° ESE visible
24 Oct ? 06:34:28 10° NNE 06:38:51 53° ESE 06:43:04 10° S visible
24 Oct ? 17:43:13 10° S 17:47:34 43° W 17:51:53 10° NNW visible
24 Oct ? 19:22:30 10° WSW 19:24:55 14° WNW 19:27:20 10° NW visible
25 Oct ? 04:16:33 10° NE 04:19:54 21° E 04:23:10 10° SE visible
25 Oct ? 05:52:29 10° NNE 05:56:55 67° ESE 06:01:13 10° S visible
25 Oct ? 17:01:33 10° SSW 17:05:43 34° W 17:09:50 10° NNW visible
25 Oct ? 18:41:50 10° W 18:43:15 11° WNW 18:44:39 10° NW visible
26 Oct ? 04:34:25 10° NNE 04:38:07 25° E 04:41:43 10° SE visible
26 Oct ? 06:10:30 10° NNE 06:14:58 84° ESE 06:19:17 10° SSW visible
26 Oct ? 17:19:58 10° SSW 17:23:53 28° W 17:27:46 10° NNW visible
27 Oct ? 04:52:21 10° NNE 04:56:19 31° E 05:00:09 10° SSE visible
27 Oct ? 06:28:32 10° NNE 06:32:58 79° WNW 06:37:16 10° SSW visible
27 Oct ? 17:38:31 10° SW 17:42:06 23° W 17:45:38 10° NNW visible
28 Oct ? 03:35:08 10° NE 03:37:00 12° ENE 03:38:52 10° E visible
28 Oct ? 05:10:19 10° NNE 05:14:27 39° E 05:18:29 10° SSE visible
28 Oct ? 06:46:34 10° NNE 06:50:57 64° WNW 06:55:11 10° SW visible
28 Oct ? 16:18:46 10° S 16:23:14 57° WSW 16:27:38 10° NNW visible
28 Oct ? 17:57:12 10° SW 18:00:20 18° W 18:03:27 10° NW visible
29 Oct ? 03:52:41 10° NE 03:55:19 15° ENE 03:57:54 10° ESE visible
29 Oct ? 05:28:18 10° NNE 05:32:35 49° E 05:36:44 10° S visible
29 Oct ? 16:36:59 10° S 16:41:20 45° W 16:45:37 10° NNW visible
29 Oct ? 18:16:04 10° WSW 18:18:37 15° WNW 18:21:09 10° NW visible
